Regional Weather Roundup
Issued by NWS

Home | Current Version | Previous Version | Text Only | Print | Product List | Glossary On
Versions: 1 2 3 4 5 6 7 8 9 10 11 12 13 14 15 16 17 18 19 20 21 22 23 24 25 26 27 28 29 30 31 32 33 34 35 36 37 38 39 40 41 42 43 44 45 46 47 48 49 50
032
ASUS43 KDMX 172001
RWRIA

WEATHER ROUNDUP FOR IOWA
NATIONAL WEATHER SERVICE DES MOINES IA
200 PM CST TUE JAN 17 2017

NOTE: "FAIR" INDICATES FEW OR NO CLOUDS BELOW 12,000 FEET WITH NO
SIGNIFICANT WEATHER AND/OR OBSTRUCTIONS TO VISIBILITY.

* - THESE STATIONS ARE NOT NWS STATIONS...THUS NOT UNDER NWS
QUALITY CONTROL.  THEY ALSO DO NOT REPORT WEATHER SUCH
AS PRECIPITATION OR FOG.

IAZ001>003-012>014-020>022-031>034-043>046-172100-
   NORTHWEST IOWA

CITY           SKY/WX    TMP DP  RH WIND       PRES   REMARKS
CARROLL *      CLOUDY    34  34 100 NW13      30.02R WCI  25
CHEROKEE *     CLOUDY    29  28  96 W6        30.03F WCI  23
DENISON *      CLOUDY    28  28 100 W7        30.02S FOG     WCI  21
LE MARS *      SUNNY     30  27  86 SW7       30.05F WCI  23
ORANGE CITY *  MOSUNNY   28  27  93 W6        30.02F WCI  22
SHELDON *      MOSUNNY   28  28 100 W10       30.00F WCI  19
SIOUX CITY     SUNNY     33  25  72 W6        30.05F WCI  28
SPENCER        FOG       29  29 100 W13       30.01S VSB 1/2 WCI  19
STORM LAKE *   PTSUNNY   28  28 100 W12G17    30.01S FOG     WCI  18
$$

IAZ055>058-069>071-079>083-090>094-172100-
   SOUTHWEST IOWA

CITY           SKY/WX    TMP DP  RH WIND       PRES   REMARKS
ATLANTIC *     CLOUDY    32  32 100 W9        30.04S WCI  24
AUDUBON *      FOG       32  30  93 CALM      30.04R VSB 1
CLARINDA *     CLOUDY    36  34  93 W8        30.08S WCI  29
COUNCIL BLFS * MOSUNNY   32  30  93 W8        30.05S WCI  25
CRESTON *      CLOUDY    34  34 100 W10       30.04R WCI  26
HARLAN  *      CLOUDY    30  30 100 W12       30.08R FOG     WCI  21
LAMONI         CLOUDY    36  34  92 W12       30.02S WCI  28
RED OAK *      CLOUDY    34  32  93 W8        30.06S FOG     WCI  27
SHENANDOAH *   CLOUDY    34  32  93 W7        30.08S WCI  28
$$

IAZ047>049-059>061-072>074-084-172100-
   CENTRAL IOWA

CITY           SKY/WX    TMP DP  RH WIND       PRES   REMARKS
AMES           CLOUDY    35  34  96 NW15      30.00R FOG     WCI  25
ANKENY *       CLOUDY    36  32  87 W13       30.02R WCI  27
BOONE *        CLOUDY    32  32 100 W9G18     29.99S FOG     WCI  24
CHARITON *     CLOUDY    36  34  93 W10       30.01S WCI  28
DES MOINES     CLOUDY    36  33  89 W12       30.01S WCI  28
GRINNELL*      CLOUDY    33  33  99 W12G18    29.98R FOG     WCI  25
KNOXVILLE *    CLOUDY    36  34  93 W14       29.99S FOG     WCI  27
MARSHALLTOWN   CLOUDY    33  32  96 NW17      29.97R FOG     WCI  22
NEWTON *       CLOUDY    34  34 100 W13       29.98S FOG     WCI  25
PELLA *        CLOUDY    35  34  97 W9        30.01R FOG     WCI  28
PERRY *        CLOUDY    34  33  99 W10       30.02R WCI  26
$$

IAZ004>006-015-016-023>025-035-036-172100-
   NORTH CENTRAL IOWA

CITY           SKY/WX    TMP DP  RH WIND       PRES   REMARKS
ALGONA *       CLOUDY    32  32 100 NW9       29.99S FOG     WCI  24
CLARION *      CLOUDY    32  32 100 NW10      29.99S FOG     WCI  24
ESTHERVILLE    CLOUDY    31  31 100 W12       29.99S FOG     WCI  22
FORT DODGE *   CLOUDY    34  30  86 CALM      30.01S
MASON CITY     FOG       31  30  96 NW15      29.97R VSB 1   WCI  20
FOREST CITY *  CLOUDY    32  32 100 NW9       29.97S FOG     WCI  24
WEBSTER CITY * CLOUDY    34  34 100 NW10      29.98S FOG     WCI  26
IOWA FALLS *   CLOUDY    33  32  96 W10       29.99R WCI  25
$$

IAZ007>011-017>019-026>030-037>042-050>054-066-172100-
   NORTHEAST IOWA

CITY           SKY/WX    TMP DP  RH WIND       PRES   REMARKS
CEDAR RAPIDS   CLOUDY    34  32  92 NW17      29.94R FOG     WCI  23
CHARLES CITY * MIX PCPN  32  32 100 NW13      29.94S VSB 3/4 WCI  22
CLINTON *      LGT RAIN  35  34  96 W15       29.93R FOG     WCI  25
DECORAH *      CLOUDY    34  34 100 NW7       29.89R FOG     WCI  28
DUBUQUE        CLOUDY    33  32  96 W12       29.90R FOG     WCI  24
MONTICELLO *   CLOUDY    36  34  93 W10G21    29.92R FOG     WCI  28
OELWEIN *      CLOUDY    32  32 100 NW15G21   29.93R FOG     WCI  22
WATERLOO       CLOUDY    33  31  92 NW12      29.95R FOG     WCI  24
$$

IAZ064-065-067-068-078-172100-
   EAST CENTRAL IOWA

CITY           SKY/WX    TMP DP  RH WIND       PRES   REMARKS
DAVENPORT      CLOUDY    35  34  96 W15       29.94R FOG     WCI  25
IOWA CITY      CLOUDY    37  34  89 W10       29.97S FOG     WCI  30
MUSCATINE *    CLOUDY    37  34  87 W9G18     29.97S WCI  31
QUAD CITIES    FOG       36  34  92 W10       29.94R VSB 1   WCI  28
$$

IAZ062-063-075>077-085>089-095>099-172100-
   SOUTHEAST IOWA

CITY           SKY/WX    TMP DP  RH WIND       PRES   REMARKS
BURLINGTON     CLOUDY    36  35  96 W10G18    29.98R WCI  28
FAIRFIELD *    CLOUDY    36  34  93 W13G20    29.98S WCI  27
FORT MADISON * CLOUDY    37  36  93 W9        30.00R WCI  31
KEOKUK *       CLOUDY    37  36  93 W9G15     29.99S WCI  31
OSKALOOSA *    CLOUDY    34  34  99 W14       29.99S FOG     WCI  25
OTTUMWA        CLOUDY    36  33  89 NW14      29.99S WCI  27
WASHINGTON *   CLOUDY    36  36 100 W14       29.98S FOG     WCI  27
$$

ABBREVIATIONS USED IN REMARKS
   TC - TEMPERATURES IN CELSIUS
  WCI - WIND CHILL INDEX
   HX - HEAT INDEX
  VSB - VISIBILITY
$$





USA.gov is the U.S. government's official web portal to all federal, state and local government web resources and services.